Find Starlink 34013

NORAD ID: 63871 Int'l Des: 2025-094 Owner: SPXS Country: US Constellation: starlink operational
LEOCIRCULAR

当前视图

正在加载3D地球...

About Starlink 34013

Starlink 34013 (NORAD 63871) is a starlink constellation satellite (v2 mini) launched May 10, 2025 by SPXS of US. It operates in LEO, CIRCULAR orbit with a mass of 575.00 kg.

即将过境

Passes for default location (London). Set your location on the main map for personalized predictions.

高度历史

Loading altitude history...

两行轨道根数

1 63871U 25094H 26263.94830167 .00008357 00000-0 29479-3 0 9999
2 63871 69.9992 99.6524 0003442 270.6487 89.4293 15.29584848 76511
Epoch: Sep 20, 2026 • Age: 10 hours

当前状态

高度 479.2 km
远地点 / 近地点 N/A
速度 7.63 km/s
星下点 11.42°N, 140.47°E
发射日期 May 10, 2025
运行时间 1.3 years
类型 internet

技术详情

分类 Payload
质量 575.00 kg
干质量 530.00 kg
长度 0.30 m
跨度 29.00 m
形状 ? Box + pan
制造商 SPXS
平台类型 Starlink V2MO
阶段状态 In Orbit
所有者/国家 SPXS/US

Most Searched